This is the latest recevied weather packets stored in our database for station/object W4KAB. If no packets are shown the sender has not sent any weather packets the latest 10 day(s).
| Time | Temp. | Humidity | Pressure | Rain* | Wind** | Luminosity | Snow |
|---|---|---|---|---|---|---|---|
| 1777830686 | 18.33° C | 28% | 1019.8 hPa | 0 mm | - | 766 W/m² | - |
| 1777830383 | 18.33° C | 31% | 1019.9 hPa | 0 mm | - | 772 W/m² | - |
| 1777830080 | 17.78° C | 29% | 1019.9 hPa | 0 mm | - | 745 W/m² | - |
| 1777829775 | 17.78° C | 33% | 1020 hPa | 0 mm | - | 734 W/m² | - |
| 1777829472 | 18.33° C | 34% | 1020.2 hPa | 0 mm | - | 759 W/m² | - |
| 1777829169 | 17.78° C | 32% | 1020.3 hPa | 0 mm | - | 757 W/m² | - |
| 1777828866 | 17.22° C | 32% | 1020.2 hPa | 0 mm | - | 763 W/m² | - |
| 1777828563 | 17.22° C | 30% | 1020.4 hPa | 0 mm | - | 757 W/m² | - |
| 1777828260 | 17.22° C | 31% | 1020.5 hPa | 0 mm | - | 757 W/m² | - |
| 1777827956 | 17.22° C | 31% | 1020.4 hPa | 0 mm | - | 787 W/m² | - |
| 1777827653 | 17.22° C | 29% | 1020.4 hPa | 0 mm | - | 789 W/m² | - |
| 1777827351 | 17.22° C | 29% | 1020.5 hPa | 0 mm | - | 791 W/m² | - |
| 1777827047 | 17.22° C | 30% | 1020.6 hPa | 0 mm | - | 796 W/m² | - |
| 1777826744 | 16.67° C | 31% | 1020.6 hPa | 0 mm | - | 788 W/m² | - |
| 1777826441 | 17.22° C | 29% | 1020.5 hPa | 0 mm | - | 789 W/m² | - |
| 1777826138 | 17.22° C | 31% | 1021.1 hPa | 0 mm | - | 762 W/m² | - |
| 1777825835 | 16.67° C | 33% | 1020.9 hPa | 0 mm | - | 737 W/m² | - |
| 1777825532 | 16.11° C | 32% | 1021.1 hPa | 0 mm | - | 770 W/m² | - |
| 1777825230 | 16.67° C | 35% | 1021 hPa | 0 mm | - | 776 W/m² | - |
| 1777824926 | 15.56° C | 34% | 1021.3 hPa | 0 mm | - | 763 W/m² | - |
| 1777824622 | 15° C | 32% | 1021.4 hPa | 0 mm | - | 757 W/m² | - |
| 1777824320 | 15° C | 34% | 1021.4 hPa | 0 mm | - | 764 W/m² | - |
| 1777824015 | 14.44° C | 33% | 1021.5 hPa | 0 mm | - | 744 W/m² | - |
| 1777823712 | 14.44° C | 34% | 1021.7 hPa | 0 mm | - | 757 W/m² | - |
| 1777823409 | 15° C | 33% | 1021.6 hPa | 0 mm | - | 792 W/m² | - |
* Rain latest hour (hover to see other rain measurements)
** Current wind speed in m/s (hover to see current wind gust speed)